This demonstration page uses our WeatherBlox Daily Observations layout. Learn more.

Left ArrowRight Arrow

40.97296, -117.73568

Hourly Observations for January 19, 2022

Temp ( °F °C ) Dew Point ( °F °C ) Humidity (%) Winds ( mph kmh ) Pressure ( in mb ) Visibility ( mi km ) Precip ( " mm )
12:56 am 00:56 Clear 25 -3.9 23 -5 92 92 Calm 30.23 1024 10 16 0.00 0.00
1:56 am 01:56 Clear 25 -3.9 22 -5.6 88 88 S 3 6 30.24 1024 10 16 0.00 0.00
2:56 am 02:56 Clear 23 -5 20 -6.7 88 88 Calm 30.25 1025 10 16 0.00 0.00
3:56 am 03:56 Clear 23 -5 20 -6.7 88 88 Calm 30.24 1024 10 16 0.00 0.00
4:56 am 04:56 Clear 22 -5.6 19 -7.2 89 89 SSW 5 7 30.28 1025 10 16 0.00 0.00
5:56 am 05:56 Clear 21 -6.1 17 -8.3 85 85 Calm 30.31 1026 10 16 0.00 0.00
6:56 am 06:56 Clear 21 -6.1 18 -7.8 88 88 Calm 30.33 1027 10 16 0.00 0.00
7:56 am 07:56 Sunny 24 -4.4 21 -6.1 88 88 Calm 30.36 1028 10 16 0.00 0.00
8:56 am 08:56 Sunny 31 -0.6 28 -2.2 89 89 Calm 30.37 1028 10 16 0.00 0.00
9:56 am 09:56 Sunny 38 3.3 30 -1.1 73 73 Calm 30.37 1029 10 16 0.00 0.00
10:56 am 10:56 Sunny 42 5.6 31 -0.6 65 65 Calm 30.37 1028 10 16 0.00 0.00
11:56 am 11:56 Sunny 45 7.2 30 -1.1 56 56 Calm 30.34 1027 10 16 0.00 0.00
12:56 pm 12:56 Sunny 48 8.9 30 -1.1 50 50 VRB 5 7 30.33 1027 10 16 0.00 0.00
1:56 pm 13:56 Mostly Sunny 49 9.4 29 -1.7 46 46 VRB 5 7 30.34 1027 10 16 0.00 0.00
2:56 pm 14:56 Sunny 49 9.4 25 -3.9 39 39 NNW 6 9 30.35 1028 10 16 0.00 0.00
3:56 pm 15:56 Sunny 48 8.9 27 -2.8 44 44 N 7 11 30.35 1028 10 16 0.00 0.00
4:56 pm 16:56 Clear 42 5.6 27 -2.8 55 55 N 6 9 30.38 1029 10 16 0.00 0.00
5:56 pm 17:56 Clear 34 1.1 26 -3.3 73 73 NNW 6 9 30.43 1030 10 16 0.00 0.00
6:56 pm 18:56 Mostly Cloudy 31 -0.6 25 -3.9 79 79 SW 3 6 30.46 1032 10 16 0.00 0.00
7:56 pm 19:56 Clear 30 -1.1 25 -3.9 82 82 NNE 3 6 30.47 1032 10 16 0.00 0.00
8:56 pm 20:56 Clear 28 -2.2 25 -3.9 88 88 S 5 7 30.46 1032 10 16 0.00 0.00
9:56 pm 21:56 Clear 29 -1.7 25 -3.9 85 85 SSE 8 13 30.45 1031 10 16 0.00 0.00
10:56 pm 22:56 Clear 28 -2.2 25 -3.9 88 88 ENE 3 6 30.47 1032 10 16 0.00 0.00
11:56 pm 23:56 Clear 27 -2.8 24 -4.4 89 89 SSE 7 11 30.47 1032 10 16 0.00 0.00

Powered by AerisWeather